Flag for Poland Weather past 2 weeks in Bielsko-Biała, Poland

Now
65 °F

Overcast.


Feels Like: 65 °F
Forecast: 48 / 71 °F
Wind: 2 mph from Southwest

Location: Katowice


UV Index: 3 (Moderate)

Visibility: 9 mi


Pressure: 30.07 "Hg

Humidity: 62%

Dew point: 51 °F

Location of Bielsko-BiałaLocation

Historic Weather in Bielsko-Biała

°F

Bielsko-Biała temperature yesterday

Maximum temperature yesterday: 71 °F (at 2:00 PM)
Minimum temperature yesterday: 50 °F (at 5:00 AM)
Average temperature yesterday: 59 °F

Past Weeks' High & Low Weather Summary

 TemperatureHumidityPressure
High71 °F (Apr 22, 2:00 PM)100% (Apr 13, 8:00 AM)30.38 "Hg (Apr 13, 8:00 AM)
Low30 °F (Apr 13, 6:00 AM)34% (Apr 18, 3:00 PM)29.72 "Hg (Apr 14, 4:00 PM)
Average48 °F76%30.00 "Hg
* Reported Apr 8 12:00 Noon — Apr 23 12:00 Noon, Bielsko-Biała, Weather by CustomWeather, © 2014

Note: Actual official high and low records may vary slightly from our data, if they occured in-between our weather recording intervals... More about our weather records

Advertising

Historic Weather Conditions — Data for Previous 24 hours

 ConditionsComfort  
Time TempWeatherWind HumidityBarometerVisibility
12:00 PM
Apr 23
65 °FPartly sunny.2 mph64%30.08 "Hg9 mi
11:00 AM63 °FPartly sunny.1 mph70%30.09 "Hg9 mi
10:00 AM60 °FPartly sunny.1 mph80%30.09 "Hg6 mi
9:00 AM59 °FSprinkles. Low clouds.1 mph88%30.09 "Hg2 mi
8:00 AM53 °FSprinkles. Overcast.1 mph98%30.09 "Hg2 mi
7:00 AM51 °FFog.1 mph98%30.09 "Hg2 mi
6:00 AM51 °FFog.No wind98%30.07 "Hg2 mi
5:00 AM51 °FFog.No wind98%30.06 "Hg5 mi
4:00 AM51 °FFog.1 mph98%30.05 "Hg5 mi
3:00 AM52 °FFog.No wind98%30.04 "Hg5 mi
2:00 AM52 °FFog.1 mph98%30.03 "Hg5 mi
1:00 AM50 °FFog.1 mph97%30.03 "Hg5 mi
12:00 AM51 °FFog.1 mph97%30.03 "Hg5 mi
11:00 PM
Apr 22
52 °FFog.1 mph96%30.02 "Hg5 mi
10:00 PM53 °FOvercast.No wind93%30.01 "Hg6 mi
9:00 PM55 °FPassing clouds.1 mph89%29.99 "Hg6 mi
8:00 PM56 °FOvercast.2 mph86%29.97 "Hg6 mi
7:00 PM57 °FLight rain. Overcast.3 mph83%29.94 "Hg6 mi
6:00 PM60 °FThundershowers. Overcast.5 mph64%29.94 "Hg12 mi
5:00 PM62 °FThundershowers. Overcast.5 mph69%29.89 "Hg9 mi
4:00 PM63 °FThundershowers. Overcast.1 mph70%29.87 "Hg12 mi
3:00 PM69 °FSprinkles. Overcast.1 mph42%29.85 "Hg12 mi
2:00 PM71 °FOvercast.2 mph39%29.85 "Hg12 mi
Weather by CustomWeather, © 2014

See weather overview